Taunton, MA

11:30 PM EST on January 23, 2018 (GMT -0500)
Taunton Municipal

Weather History for KTAN - February, 2012

Change the Weather History Date:

Saturday, February 11, 2012

  Actual Average Record
Temperature  
Mean Temperature 36 °F -  
Max Temperature 39 °F 39 °F 62 °F (1981)
Min Temperature 30 °F 17 °F -8 °F (1978)
Degree Days  
Heating Degree Days 29    
Moisture  
Dew Point 31 °F    
Average Humidity 90    
Maximum Humidity 100    
Minimum Humidity 57    
Precipitation  
Precipitation 0.16 in - - ()
Sea Level Pressure  
Sea Level Pressure 29.68 in    
Wind  
Wind Speed 4 mph (NNW)    
Max Wind Speed 14 mph    
Max Gust Speed 22 mph    
Visibility 5 miles    
Events Rain , Snow    
Averages and records for this station are not official NWS values.
T = Trace of Precipitation, MM = Missing Value Source: NWS Daily Summary

Daily Weather History Graph

Daily Weather History Graph

Search for Another Location

Airport or City:

Trip Planner

Search our weather history database for the weather conditions in past years. The results will help you decide how hot, cold, wet, or windy it might be!

Date:

Astronomy

Feb. 11, 2012 Rise Set
Actual Time 6:45 AM EST 5:11 PM EST
Civil Twilight 6:16 AM EST 5:40 PM EST
Nautical Twilight 5:44 AM EST 6:13 PM EST
Astronomical Twilight 5:11 AM EST 6:45 PM EST
Moon 10:01 PM EST (2/11) 8:21 AM EST (2/11)
Length of Visible Light 11h 23m
Length of Day
10h 25m
Waning Gibbous, 82% of the Moon is Illuminated
Feb 11
Waning Gibbous
Feb 14
Last Quarter
Feb 21
New
Feb 29
First Quarter
Mar 8
Full

Hourly Weather History & Observations

Time (EST) Temp. Windchill Dew Point Humidity Pressure Visibility Wind Dir Wind Speed Gust Speed Precip Events Conditions
12:52 AM 39.0 °F 35.7 °F 39.0 °F 100% 29.88 in 5.0 mi SW 4.6 mph - 0.02 in Rain Light Rain
1:06 AM 39.2 °F 35.9 °F 39.2 °F 100% 29.88 in 5.0 mi SW 4.6 mph - 0.01 in Rain Light Rain
1:36 AM 37.4 °F 33.8 °F 37.4 °F 100% 29.88 in 4.0 mi WSW 4.6 mph - 0.03 in Rain Light Rain
1:45 AM 37.4 °F 32.8 °F 37.4 °F 100% 29.88 in 4.0 mi NW 5.8 mph - 0.04 in Rain Light Rain
1:52 AM 37.0 °F 33.3 °F 37.0 °F 100% 29.88 in 4.0 mi NW 4.6 mph - 0.04 in Rain Light Rain
2:52 AM 36.0 °F - 34.0 °F 93% 29.86 in 5.0 mi Calm Calm - 0.02 in Rain Light Rain
3:52 AM 35.1 °F 31.0 °F 33.1 °F 92% 29.84 in 4.0 mi WNW 4.6 mph - 0.02 in Rain Light Rain
4:49 AM 33.8 °F - 33.8 °F 100% 29.84 in 2.5 mi Calm Calm - 0.01 in Snow Light Snow
4:52 AM 34.0 °F - 33.1 °F 96% 29.84 in 2.5 mi Calm Calm - 0.01 in Snow Light Snow
5:10 AM 33.8 °F - 32.0 °F 93% 29.83 in 1.8 mi Calm Calm - 0.00 in Snow Light Snow
5:24 AM 33.8 °F - 32.0 °F 93% 29.82 in 2.0 mi Calm Calm - 0.01 in Snow Light Snow
5:36 AM 33.8 °F - 32.0 °F 93% 29.82 in 1.8 mi Calm Calm - 0.01 in Snow Light Snow
5:52 AM 33.1 °F - 32.0 °F 96% 29.82 in 1.5 mi Calm Calm - 0.01 in Snow Light Snow
6:06 AM 33.8 °F - 32.0 °F 93% 29.81 in 1.2 mi Calm Calm - 0.01 in Snow Light Snow
6:24 AM 33.8 °F - 32.0 °F 93% 29.80 in 1.2 mi Calm Calm - 0.01 in Snow Light Snow
6:52 AM 33.1 °F - 32.0 °F 96% 29.80 in 1.5 mi Calm Calm - 0.02 in Snow Light Snow
7:09 AM 33.8 °F - 32.0 °F 93% 29.79 in 1.0 mi Calm Calm - 0.00 in Snow Light Snow
7:41 AM 33.8 °F - 32.0 °F 93% 29.79 in 0.8 mi Calm Calm - 0.01 in Snow Light Snow
7:52 AM 33.1 °F - 32.0 °F 96% 29.79 in 0.8 mi Calm Calm - 0.01 in Snow Light Snow
8:10 AM 33.8 °F - 32.0 °F 93% 29.78 in 1.0 mi Calm Calm - 0.00 in Snow Light Snow
8:31 AM 33.8 °F - 32.0 °F 93% 29.78 in 1.0 mi Calm Calm - 0.00 in Snow Light Snow
8:49 AM 33.8 °F - 32.0 °F 93% 29.77 in 1.5 mi Calm Calm - 0.00 in Snow Light Snow
8:52 AM 33.1 °F - 32.0 °F 96% 29.78 in 1.5 mi Calm Calm - 0.00 in Snow Light Snow
9:14 AM 33.8 °F - 32.0 °F 93% 29.76 in 1.8 mi Calm Calm - 0.00 in   Overcast
9:17 AM 33.8 °F - 32.0 °F 93% 29.76 in 2.0 mi Calm Calm - 0.00 in   Overcast
9:24 AM 33.8 °F - 32.0 °F 93% 29.76 in 1.8 mi Calm Calm - 0.00 in Snow Light Snow
9:36 AM 33.8 °F - 32.0 °F 93% 29.75 in 1.5 mi Calm Calm - 0.00 in Snow Light Snow
9:40 AM 33.8 °F - 32.0 °F 93% 29.74 in 1.2 mi Calm Calm - 0.01 in Snow Light Snow
9:52 AM 34.0 °F - 32.0 °F 92% 29.74 in 1.2 mi Calm Calm - 0.01 in Snow Light Snow
10:15 AM 33.8 °F 30.8 °F 32.0 °F 93% 29.73 in 1.5 mi North 3.5 mph - 0.00 in Snow Light Snow
10:33 AM 33.8 °F 30.8 °F 32.0 °F 93% 29.72 in 2.5 mi North 3.5 mph - 0.00 in Snow Light Snow
10:52 AM 35.1 °F 32.2 °F 33.1 °F 92% 29.71 in 2.0 mi North 3.5 mph - 0.00 in Snow Light Snow
11:35 AM 35.6 °F - 33.8 °F 93% 29.68 in 1.8 mi Calm Calm - 0.01 in Snow Light Snow
11:52 AM 35.1 °F 31.0 °F 33.1 °F 92% 29.68 in 1.8 mi North 4.6 mph - 0.02 in Snow Light Snow
12:08 PM 33.8 °F 29.6 °F 33.8 °F 100% 29.66 in 1.2 mi NNW 4.6 mph - 0.00 in Snow Light Snow
12:17 PM 35.6 °F 30.7 °F 35.6 °F 100% 29.66 in 1.5 mi NNW 5.8 mph - 0.01 in Snow Light Snow
12:28 PM 33.8 °F 27.7 °F 33.8 °F 100% 29.65 in 2.0 mi North 6.9 mph - 0.01 in Snow Light Snow
12:52 PM 35.1 °F 30.1 °F 35.1 °F 100% 29.63 in 2.5 mi North 5.8 mph - 0.01 in Snow Light Snow
1:45 PM 35.6 °F 30.7 °F 35.6 °F 100% 29.60 in 3.0 mi North 5.8 mph - 0.01 in Snow Light Snow
1:52 PM 35.1 °F 30.1 °F 35.1 °F 100% 29.60 in 3.0 mi North 5.8 mph - 0.01 in Snow Light Snow
2:52 PM 35.1 °F 28.6 °F 33.1 °F 92% 29.57 in 6.0 mi North 8.1 mph - 0.00 in   Overcast
2:59 PM 35.6 °F 29.9 °F 32.0 °F 87% 29.56 in 7.0 mi NNE 6.9 mph - N/A   Overcast
3:13 PM 33.8 °F 25.3 °F 32.0 °F 93% 29.56 in 7.0 mi North 11.5 mph 16.1 mph N/A   Overcast
3:25 PM 35.6 °F 30.7 °F 32.0 °F 87% 29.55 in 9.0 mi North 5.8 mph - N/A   Overcast
3:52 PM 34.0 °F 28.0 °F 32.0 °F 92% 29.55 in 9.0 mi North 6.9 mph - N/A   Overcast
4:39 PM 33.8 °F 27.0 °F 30.2 °F 87% 29.52 in 10.0 mi North 8.1 mph - N/A   Overcast
4:52 PM 34.0 °F 28.0 °F 30.9 °F 89% 29.52 in 10.0 mi North 6.9 mph - N/A   Overcast
5:31 PM 33.8 °F 25.3 °F 30.2 °F 87% 29.51 in 10.0 mi North 11.5 mph 19.6 mph N/A   Overcast
5:52 PM 34.0 °F 25.0 °F 28.9 °F 82% 29.52 in 10.0 mi North 12.7 mph 18.4 mph N/A   Overcast
6:16 PM 33.8 °F 25.8 °F 28.4 °F 81% 29.51 in 10.0 mi North 10.4 mph 17.3 mph N/A   Overcast
6:50 PM 33.8 °F 26.4 °F 28.4 °F 81% 29.51 in 10.0 mi North 9.2 mph - N/A   Overcast
6:52 PM 34.0 °F 27.2 °F 28.0 °F 79% 29.51 in 10.0 mi North 8.1 mph 16.1 mph N/A   Overcast
7:52 PM 34.0 °F 27.2 °F 26.1 °F 73% 29.51 in 10.0 mi North 8.1 mph 16.1 mph 0.00 in   Overcast
8:52 PM 34.0 °F 26.0 °F 25.0 °F 70% 29.51 in 10.0 mi North 10.4 mph 16.1 mph N/A   Overcast
9:52 PM 34.0 °F 28.0 °F 25.0 °F 70% 29.50 in 10.0 mi NNW 6.9 mph - N/A   Overcast
10:36 PM 33.8 °F 24.8 °F 24.8 °F 70% 29.50 in 10.0 mi NNW 12.7 mph 18.4 mph N/A   Overcast
10:52 PM 34.0 °F 24.6 °F 21.0 °F 59% 29.51 in 10.0 mi NW 13.8 mph 19.6 mph N/A   Overcast
11:52 PM 30.9 °F 21.2 °F 17.1 °F 57% 29.52 in 10.0 mi NNW 12.7 mph 21.9 mph N/A   Clear